Location: *
(0.1100°N, 5.5000°E)
Time: 08:15:18
(UTC+00:00)

BlueWalker 3 - Visible Passes

Search period start: 26 March 2023 00:00
Search period end: 05 April 2023 00:00
Orbit: 497 x 515 km, 53.2° (Epoch: 25 March)

Date Brightness Start Highest point End Pass type
(mag) Time Alt. Az. Time Alt. Az. Time Alt. Az.
27 Mar 1.9 05:11:41 10° NW 05:15:29 81° WSW 05:19:19 10° SSE visible
28 Mar 1.8 04:52:01 10° NW 04:55:48 75° WSW 04:59:38 10° SSE visible
29 Mar 1.8 04:34:12 27° NW 04:36:07 70° WSW 04:39:56 10° SSE visible
30 Mar 2.1 04:17:00 54° S 04:17:00 54° S 04:20:12 10° SSE visible
31 Mar 4.3 03:59:38 16° SSE 03:59:38 16° SSE 04:00:28 10° SSE visible
